Wind_Speed
4 4 4 4 3 4 4 6 7 7 6 7 7 8 9 9 9 10 11 11 12 11 12 12 13 13 14 15 15 16 16 17 17 17 18 17 17 17 16 15 15 14 14 13 13 13 13 12 12
4 4 4 5 4 5 5 6 7 8 7 7 8 9 10 11 11 11 12 12 14 13 14 14 15 15 16 17 17 18 18 19 19 20 20 20 19 19 18 18 17 16 15 14 13 13 13 13 12
5 4 5 6 5 7 6 7 8 9 10 10 11 11 12 13 13 14 14 14 16 16 16 17 17 17 18 19 19 20 20 21 21 22 23 23 22 21 21 20 19 18 16 15 14 14 13 13 13
5 5 7 7 8 9 7 7 9 10 11 12 14 15 15 16 17 17 17 18 19 19 19 20 20 20 21 21 21 21 22 22 23 24 24 25 26 25 23 23 22 20 19 17 16 14 14 13 13
6 7 8 10 11 9 9 9 10 11 12 14 16 17 18 19 19 20 20 21 22 22 22 22 23 23 23 24 24 24 24 24 24 25 25 26 27 27 26 25 24 23 21 19 18 16 15 14 13
7 10 11 12 11 11 11 12 12 13 14 16 18 19 20 20 21 22 23 23 23 24 24 25 25 25 25 26 26 26 27 27 27 27 27 28 28 27 26 26 25 24 23 21 20 18 16 15 14
10 12 13 14 14 13 13 13 14 15 17 18 19 20 20 21 22 22 23 23 24 24 25 26 26 26 27 28 28 29 29 29 29 29 29 29 29 29 28 28 26 25 25 24 22 20 18 17 15
12 14 14 14 14 14 14 16 16 17 17 19 20 21 20 20 21 22 22 22 23 24 25 25 26 26 27 28 29 30 31 31 31 31 31 31 29 29 29 29 28 27 26 26 25 23 21 19 17
13 15 16 14 14 15 16 17 17 18 18 19 20 20 20 21 21 21 21 21 22 22 23 23 23 24 25 26 28 29 31 31 32 32 32 32 31 31 30 30 29 29 28 26 26 25 24 21 19
15 16 16 15 14 15 15 16 17 17 19 19 19 19 19 19 19 19 19 19 19 20 20 21 22 22 23 24 25 26 28 29 30 31 32 33 33 32 31 30 29 29 29 29 28 27 26 24 22
16 15 14 13 14 15 15 16 17 17 18 18 18 18 18 18 18 17 18 18 19 19 19 20 20 21 21 22 23 24 26 27 28 29 31 31 32 33 33 32 29 28 27 28 28 29 28 26 24
16 15 14 14 14 15 15 16 17 17 18 18 18 18 18 17 17 18 17 18 18 18 19 19 20 20 20 21 22 23 24 25 26 27 29 30 30 31 33 33 31 30 29 28 28 27 27 28 26
16 14 13 14 14 14 14 15 15 16 17 17 17 18 18 17 17 17 17 17 17 18 18 18 19 20 20 20 20 21 22 22 23 24 26 28 28 29 30 32 32 31 31 28 28 28 27 27 28
17 15 13 13 13 13 13 13 13 15 15 16 16 16 16 16 17 17 16 17 17 17 18 18 19 19 19 19 19 19 19 19 20 21 22 24 26 27 28 29 30 31 31 30 29 28 28 28 28
17 15 12 12 11 12 11 11 12 13 13 13 14 14 15 16 16 16 16 16 17 17 18 18 19 19 19 19 18 18 18 17 17 18 19 20 22 24 26 27 29 29 30 31 31 29 29 28 28
16 15 13 11 10 11 11 11 11 11 11 12 12 14 14 15 15 16 16 17 17 18 19 19 20 20 20 19 19 18 17 16 16 16 16 17 19 20 22 25 27 28 29 30 31 31 31 30 29
16 14 12 11 11 11 10 9 8 10 10 11 11 13 13 14 15 16 16 17 18 19 19 20 21 21 20 20 19 18 17 16 15 14 14 15 16 18 20 22 24 26 28 29 30 31 31 31 31
14 13 13 12 11 11 10 8 8 9 10 10 10 11 12 13 14 16 16 18 18 19 20 21 21 21 21 20 19 18 17 16 14 13 13 12 13 15 18 20 22 24 26 28 29 30 31 32 32
14 13 13 13 11 10 8 8 8 8 8 8 10 11 11 13 14 15 16 17 18 19 20 21 22 22 21 21 20 19 17 16 15 13 12 11 11 11 14 17 19 21 23 25 27 29 30 31 31
14 13 12 11 11 10 8 7 6 6 6 7 9 10 11 12 14 15 16 17 18 19 20 21 21 22 22 21 21 20 18 17 15 14 13 12 10 10 10 12 15 18 20 22 25 26 29 30 31
13 12 12 12 10 10 8 6 4 3 3 6 8 10 11 12 13 14 16 17 18 19 20 20 21 22 22 22 21 21 19 17 16 15 14 13 11 10 9 10 12 14 17 19 22 24 26 29 30
12 11 11 11 10 9 7 4 2 1 2 4 6 8 9 11 13 14 16 17 18 19 20 21 21 22 22 22 22 22 21 19 18 16 15 14 12 10 9 9 9 11 14 17 19 22 24 27 29
11 11 11 11 9 8 6 4 2 2 1 3 4 6 8 10 12 14 15 16 17 19 20 21 22 22 22 22 22 22 21 20 19 18 17 15 14 12 11 10 10 11 12 15 17 20 23 25 28
11 11 11 10 9 8 6 4 3 4 3 3 4 5 8 9 11 12 14 15 17 18 19 20 21 22 22 22 22 22 22 21 20 19 18 17 16 14 13 11 10 10 12 14 16 19 22 24 27
12 12 12 11 10 9 6 5 5 4 3 3 4 5 7 8 10 11 13 15 16 17 18 20 21 22 22 22 22 22 22 22 21 20 19 19 18 17 15 13 11 11 11 13 15 17 20 23 26
12 12 12 12 12 9 7 6 5 4 3 3 3 5 6 8 9 11 13 14 16 17 18 19 20 21 22 22 22 22 22 22 22 21 21 20 19 19 17 15 13 12 11 12 14 16 18 21 24
12 12 12 12 12 10 9 7 6 4 3 2 3 4 5 7 9 11 13 14 16 17 18 19 19 20 21 22 22 23 22 22 22 22 22 21 20 19 19 17 15 13 12 11 13 14 16 19 22
12 12 12 13 12 11 9 8 7 5 3 1 1 3 5 7 9 11 13 14 15 17 17 18 19 20 21 21 22 23 23 23 23 23 23 22 21 21 20 19 17 15 13 12 12 13 15 17 20
11 12 12 12 12 11 9 8 7 5 4 2 1 2 4 6 9 11 13 14 15 17 17 18 19 20 21 21 22 22 23 23 23 23 23 23 22 22 22 21 19 17 14 13 13 13 13 15 17
11 12 12 12 12 10 9 8 7 6 5 3 1 2 5 7 9 11 13 14 15 16 17 18 19 20 21 21 22 22 22 23 23 23 23 23 22 22 22 22 21 19 17 15 14 13 13 13 14
Wind_Direction
0 358 360 344 29 28 23 9 11 12 4 349 341 336 332 328 324 318 313 307 303 302 301 297 291 284 280 279 278 277 275 274 274 272 272 273 275 274 274 274 274 274 274 273 271 269 265 260 257
341 344 335 324 354 1 357 353 357 357 348 337 328 323 319 316 313 311 307 302 300 301 300 296 294 286 280 276 275 275 274 272 271 271 269 269 269 268 268 269 269 270 270 270 269 267 263 260 257
328 326 315 319 334 333 331 339 339 337 331 327 322 316 312 309 305 302 299 296 296 297 296 293 290 285 279 277 274 272 271 271 271 269 266 264 264 264 263 264 265 265 264 264 264 263 262 259 257
313 302 314 319 316 318 317 326 329 331 323 319 317 313 309 306 302 299 295 292 291 290 290 288 286 284 281 278 276 275 273 273 270 268 267 265 262 261 262 261 261 261 261 259 260 260 259 257 254
294 295 303 307 308 310 317 323 322 325 319 315 313 311 308 305 301 297 293 290 289 288 286 284 282 281 279 275 273 273 271 271 270 269 267 266 264 260 261 260 259 258 257 257 256 257 256 255 253
278 285 292 300 301 304 308 318 320 320 315 313 312 310 306 304 301 298 295 292 291 290 288 285 282 280 277 274 272 270 270 269 269 269 269 267 263 261 261 260 258 256 254 254 255 254 254 252 250
272 278 286 297 303 301 308 317 320 318 315 313 312 310 308 305 303 301 299 297 294 291 289 287 284 281 278 274 272 271 269 267 268 267 266 267 264 260 259 259 258 256 252 251 252 252 251 249 248
271 276 283 292 300 303 309 317 321 320 317 315 315 314 313 311 309 307 305 302 299 296 293 290 288 285 281 277 274 272 269 267 266 266 264 264 263 260 259 257 256 255 253 250 248 248 247 246 245
271 275 283 286 295 302 310 317 320 320 319 319 318 317 317 316 314 313 311 308 305 303 300 298 294 290 286 281 277 274 271 268 266 265 264 262 260 259 260 258 256 254 252 252 248 245 244 243 242
268 272 278 279 291 302 310 316 320 321 322 321 321 321 321 321 320 318 317 314 311 309 307 304 301 297 292 288 283 279 275 271 267 265 263 260 258 257 259 257 257 256 252 251 248 245 242 240 240
270 274 280 286 297 304 311 316 320 323 323 325 327 328 328 328 328 327 325 322 319 318 315 312 308 304 298 293 289 283 279 274 270 266 263 260 258 256 255 255 255 255 252 250 249 244 242 240 237
266 273 279 293 297 305 315 319 323 327 329 331 333 334 336 337 337 335 334 332 329 326 322 319 317 313 307 301 296 290 285 279 274 268 262 260 258 255 253 253 253 251 249 249 246 245 242 238 236
263 271 279 286 293 304 316 319 323 329 332 334 338 340 341 342 343 341 340 338 335 331 328 326 325 322 317 311 304 298 293 287 280 273 266 259 256 254 252 249 249 248 247 248 246 244 242 238 235
263 270 275 282 293 309 315 318 326 331 332 338 344 347 348 349 348 347 346 343 341 339 337 335 332 329 325 321 315 308 302 295 287 279 270 261 257 254 251 248 246 246 245 245 243 243 242 237 236
260 273 274 282 295 308 315 323 327 331 335 345 353 355 356 354 353 353 351 349 349 348 347 343 340 336 332 329 324 318 311 304 296 286 275 265 259 254 250 247 245 244 243 242 242 241 240 239 238
263 271 277 284 296 310 314 319 326 331 340 355 3 4 2 359 358 357 357 356 355 354 352 348 346 343 340 336 332 328 322 313 305 294 284 273 263 257 252 248 245 243 242 239 238 238 239 237 238
260 274 284 291 301 313 317 321 333 339 348 1 8 10 7 4 1 360 360 359 359 357 354 352 350 348 346 344 342 338 333 325 316 307 294 281 271 261 254 249 245 243 241 239 237 237 237 235 236
261 269 276 290 307 313 317 329 341 345 351 3 13 15 12 6 3 3 3 3 3 360 357 356 354 353 353 352 350 347 344 338 331 321 309 296 281 268 257 250 247 243 240 238 237 236 235 233 234
254 261 274 288 301 307 314 332 340 342 349 5 17 19 16 10 8 7 6 6 4 2 1 360 360 359 359 358 356 354 351 349 346 339 329 315 299 282 265 254 248 244 242 239 238 235 233 231 231
250 259 279 293 300 304 315 330 332 332 352 13 20 20 17 14 13 11 10 9 7 5 4 3 4 3 2 2 0 358 355 352 349 348 345 335 320 303 282 265 254 248 244 240 238 236 232 230 230
249 264 278 289 295 302 315 321 312 322 5 24 22 17 16 16 15 14 13 12 10 9 8 7 6 6 5 5 5 4 1 359 356 352 348 344 334 320 304 283 265 253 246 243 239 238 234 232 230
251 264 273 278 284 292 295 291 271 288 37 34 22 14 13 15 14 13 12 11 10 10 9 8 8 8 8 8 8 7 7 6 3 359 354 350 345 335 318 300 284 265 253 247 242 240 238 235 232
250 258 263 269 275 270 263 250 217 175 103 53 28 16 15 14 12 10 9 8 8 8 9 9 9 9 9 10 10 10 10 9 7 4 360 354 349 342 333 316 297 280 265 255 248 243 240 237 235
245 251 256 260 259 247 233 211 179 162 130 79 43 26 19 13 10 7 6 6 6 7 7 8 9 9 9 10 11 11 11 10 9 7 5 1 356 349 340 328 310 290 274 263 255 249 244 241 238
245 248 251 250 244 235 217 192 164 154 125 92 58 36 20 10 6 4 4 4 4 5 5 6 7 8 9 10 10 11 10 9 8 8 6 4 0 356 349 337 323 304 285 272 263 255 250 245 241
240 243 245 245 243 232 210 185 172 152 122 91 58 33 16 7 2 0 360 360 360 0 1 2 4 6 7 8 9 9 10 9 8 7 6 4 2 359 355 348 336 321 300 284 273 264 257 250 244
236 239 239 238 241 231 208 188 177 166 142 99 48 20 7 360 356 355 356 356 356 357 358 358 0 2 4 5 6 8 8 8 8 7 6 5 3 1 358 354 346 335 320 300 284 275 266 256 248
234 233 229 228 235 232 212 196 185 183 166 136 22 356 352 349 349 350 352 353 353 354 355 355 356 358 360 1 2 3 5 5 6 6 5 4 3 2 360 357 353 344 333 318 304 289 275 264 254
228 228 224 223 227 227 212 198 193 186 184 191 260 338 342 342 343 345 348 350 351 353 353 353 354 354 355 357 358 360 1 3 3 3 2 2 1 1 0 359 356 350 342 332 318 305 290 274 261
229 222 218 219 224 225 218 201 200 191 193 201 256 325 331 334 338 341 344 347 348 350 351 352 352 352 353 354 355 357 358 360 0 0 360 359 358 359 359 358 356 353 347 340 331 320 306 289 274
Height
5917 5915 5914 5912 5911 5911 5910 5910 5909 5909 5908 5906 5905 5904 5903 5902 5902 5903 5899 5896 5894 5893 5892 5891 5890 5889 5889 5888 5888 5887 5887 5886 5886 5885 5885 5885 5885 5884 5884 5884 5884 5884 5884 5884 5884 5883 5883 5883 5883
5916 5914 5913 5911 5910 5910 5911 5909 5909 5908 5907 5906 5904 5903 5902 5900 5899 5898 5895 5893 5891 5890 5889 5888 5887 5886 5885 5885 5884 5884 5883 5883 5883 5882 5882 5882 5882 5881 5881 5881 5881 5882 5882 5882 5882 5881 5881 5881 5881
5915 5914 5912 5910 5909 5910 5910 5909 5908 5907 5906 5904 5903 5901 5900 5898 5897 5895 5893 5891 5889 5887 5886 5885 5884 5883 5882 5881 5880 5880 5879 5879 5879 5878 5878 5878 5878 5878 5878 5878 5878 5879 5879 5879 5879 5879 5879 5879 5879
5915 5913 5911 5911 5909 5909 5908 5908 5907 5906 5904 5902 5901 5899 5897 5895 5893 5892 5890 5888 5886 5884 5883 5882 5880 5879 5878 5877 5876 5876 5875 5875 5874 5874 5874 5873 5873 5874 5874 5874 5875 5875 5876 5876 5876 5877 5877 5877 5877
5913 5911 5911 5910 5909 5908 5906 5906 5905 5904 5902 5900 5898 5896 5893 5892 5889 5887 5886 5884 5882 5880 5878 5877 5875 5874 5873 5872 5871 5871 5870 5870 5869 5869 5868 5868 5868 5869 5869 5870 5870 5871 5872 5873 5873 5874 5874 5875 5875
5912 5910 5909 5908 5907 5906 5905 5904 5903 5901 5900 5898 5895 5893 5890 5888 5885 5883 5881 5879 5877 5875 5873 5871 5870 5869 5867 5866 5865 5865 5864 5864 5863 5863 5863 5863 5863 5864 5864 5865 5866 5867 5868 5869 5870 5871 5872 5872 5873
5910 5909 5908 5907 5906 5904 5903 5902 5901 5899 5897 5895 5892 5890 5887 5884 5881 5879 5876 5874 5872 5870 5867 5865 5864 5862 5861 5860 5859 5858 5858 5857 5857 5857 5857 5857 5857 5858 5859 5860 5861 5862 5863 5865 5866 5867 5868 5869 5870
5908 5908 5906 5905 5904 5902 5901 5899 5898 5896 5894 5891 5888 5886 5883 5880 5877 5874 5872 5869 5867 5864 5862 5860 5858 5856 5855 5853 5852 5851 5851 5850 5850 5850 5850 5851 5851 5852 5853 5854 5855 5857 5858 5860 5861 5863 5864 5866 5867
5905 5906 5904 5903 5902 5900 5898 5896 5895 5893 5890 5887 5884 5882 5879 5876 5873 5870 5867 5864 5861 5859 5856 5854 5852 5850 5848 5846 5845 5844 5843 5843 5843 5843 5843 5844 5844 5845 5847 5848 5849 5851 5853 5854 5856 5858 5860 5862 5863
5902 5901 5900 5899 5898 5897 5895 5893 5891 5890 5886 5884 5881 5878 5875 5872 5869 5866 5863 5860 5857 5855 5852 5849 5847 5844 5842 5840 5838 5837 5836 5835 5835 5835 5835 5836 5837 5838 5840 5841 5843 5845 5846 5849 5851 5853 5855 5857 5859
5899 5899 5897 5895 5895 5894 5892 5890 5888 5886 5883 5881 5878 5875 5872 5869 5866 5863 5860 5856 5853 5850 5847 5845 5842 5839 5836 5834 5832 5830 5829 5828 5827 5827 5827 5828 5829 5831 5832 5834 5836 5838 5840 5842 5844 5847 5849 5852 5855
5896 5895 5894 5893 5892 5890 5889 5887 5885 5882 5881 5878 5875 5871 5868 5865 5863 5860 5856 5853 5850 5847 5844 5841 5837 5834 5831 5829 5826 5824 5822 5820 5819 5819 5819 5820 5821 5823 5825 5827 5829 5831 5833 5835 5838 5841 5843 5847 5850
5893 5892 5891 5890 5889 5888 5887 5884 5882 5880 5878 5875 5872 5868 5865 5863 5860 5857 5854 5851 5848 5844 5841 5837 5834 5830 5827 5824 5821 5818 5816 5814 5812 5811 5811 5812 5813 5815 5817 5819 5821 5824 5826 5829 5832 5835 5838 5841 5844
5889 5888 5888 5888 5887 5885 5884 5882 5880 5877 5875 5872 5870 5867 5864 5861 5858 5855 5852 5849 5845 5842 5838 5834 5831 5827 5823 5820 5816 5813 5810 5808 5806 5804 5804 5804 5806 5807 5809 5811 5813 5816 5819 5822 5826 5829 5832 5835 5838
5885 5885 5885 5885 5884 5883 5882 5880 5878 5876 5873 5871 5868 5865 5863 5860 5856 5853 5850 5847 5843 5840 5836 5832 5828 5824 5820 5816 5812 5809 5806 5803 5801 5799 5798 5798 5799 5800 5802 5804 5806 5809 5812 5815 5819 5822 5826 5829 5832
5881 5882 5882 5882 5881 5881 5881 5879 5877 5874 5871 5869 5866 5864 5862 5859 5855 5852 5849 5845 5842 5838 5834 5830 5826 5821 5817 5813 5809 5805 5801 5799 5796 5794 5793 5793 5793 5794 5795 5797 5799 5802 5805 5808 5812 5815 5819 5822 5826
5879 5879 5879 5879 5879 5878 5877 5876 5874 5871 5869 5867 5865 5863 5861 5858 5855 5852 5848 5844 5840 5836 5832 5828 5824 5819 5815 5810 5806 5802 5798 5795 5793 5791 5789 5788 5788 5789 5790 5791 5793 5795 5798 5801 5804 5808 5812 5815 5819
5876 5876 5876 5876 5876 5875 5874 5872 5871 5869 5866 5865 5863 5862 5860 5857 5854 5851 5847 5843 5839 5836 5832 5827 5822 5818 5813 5808 5804 5800 5796 5793 5790 5787 5785 5784 5783 5783 5784 5785 5787 5789 5792 5795 5798 5801 5804 5808 5812
5873 5873 5873 5874 5873 5872 5870 5869 5868 5866 5865 5863 5862 5861 5859 5857 5854 5850 5847 5843 5839 5835 5831 5827 5822 5817 5812 5807 5803 5798 5794 5791 5788 5785 5783 5781 5780 5779 5779 5780 5782 5783 5786 5788 5791 5794 5798 5801 5805
5869 5870 5870 5870 5869 5868 5867 5867 5866 5865 5863 5862 5860 5859 5858 5856 5853 5850 5846 5843 5839 5835 5831 5826 5821 5816 5812 5807 5802 5798 5794 5790 5787 5784 5781 5779 5777 5776 5776 5776 5777 5778 5780 5782 5785 5788 5791 5795 5798
5866 5867 5867 5867 5867 5865 5865 5866 5865 5864 5862 5861 5859 5859 5857 5855 5853 5850 5846 5843 5839 5835 5831 5826 5822 5817 5812 5807 5802 5797 5793 5789 5786 5783 5780 5778 5776 5774 5773 5773 5773 5774 5775 5777 5779 5782 5785 5788 5791
5864 5864 5864 5864 5864 5863 5864 5864 5864 5863 5861 5860 5859 5858 5857 5855 5852 5849 5846 5843 5839 5835 5831 5827 5822 5817 5812 5807 5802 5797 5793 5789 5785 5782 5779 5776 5774 5773 5771 5770 5770 5770 5771 5772 5774 5776 5779 5781 5785
5861 5861 5862 5862 5862 5862 5862 5863 5863 5861 5860 5860 5859 5858 5856 5854 5852 5849 5846 5843 5839 5836 5831 5827 5822 5817 5812 5807 5803 5798 5793 5789 5785 5782 5779 5776 5773 5771 5770 5768 5767 5767 5767 5768 5769 5771 5773 5775 5778
5858 5859 5859 5859 5860 5861 5860 5861 5861 5860 5859 5859 5858 5857 5855 5854 5852 5849 5846 5843 5840 5836 5832 5827 5823 5818 5813 5808 5803 5799 5794 5790 5786 5782 5779 5775 5773 5770 5768 5766 5765 5764 5764 5764 5765 5766 5767 5769 5771
5855 5857 5857 5857 5857 5858 5858 5858 5859 5858 5858 5858 5857 5856 5855 5853 5852 5849 5846 5843 5840 5836 5832 5828 5823 5818 5814 5809 5804 5800 5795 5791 5787 5783 5779 5775 5772 5769 5766 5764 5762 5761 5760 5760 5760 5760 5761 5763 5764
5852 5854 5856 5856 5856 5856 5856 5856 5857 5856 5856 5856 5856 5855 5854 5853 5851 5849 5846 5843 5839 5836 5832 5828 5824 5819 5814 5810 5805 5801 5796 5792 5787 5783 5779 5775 5772 5768 5765 5762 5760 5758 5756 5755 5755 5755 5755 5756 5757
5849 5850 5852 5853 5853 5854 5854 5854 5855 5855 5855 5855 5855 5854 5853 5852 5851 5848 5846 5842 5839 5835 5832 5828 5824 5819 5815 5811 5806 5802 5797 5793 5788 5784 5779 5775 5771 5768 5764 5761 5757 5755 5753 5751 5751 5750 5750 5750 5751
5847 5847 5849 5850 5850 5851 5852 5853 5854 5854 5854 5854 5854 5854 5853 5852 5850 5847 5845 5842 5838 5835 5831 5827 5823 5819 5815 5811 5807 5802 5798 5793 5789 5784 5780 5775 5771 5767 5763 5759 5756 5752 5750 5748 5746 5745 5745 5745 5745
5844 5845 5846 5847 5848 5849 5850 5854 5853 5853 5853 5853 5853 5853 5852 5850 5849 5846 5844 5841 5837 5834 5830 5827 5823 5819 5815 5811 5807 5802 5798 5793 5789 5784 5780 5775 5771 5767 5763 5758 5754 5751 5747 5745 5743 5741 5740 5739 5739
5841 5842 5843 5845 5846 5847 5848 5853 5851 5852 5852 5852 5852 5851 5850 5849 5847 5845 5842 5840 5836 5833 5830 5826 5822 5818 5814 5810 5806 5802 5797 5793 5789 5784 5780 5775 5771 5766 5762 5757 5753 5749 5745 5742 5739 5737 5735 5734 5733